Preview of NWS' New Version of Forecast
This preview is not operational and should not be used for support decisions.

Regional Weather Roundup (RWR)

Issued by National Weather Service (NWS)

                            
000
ASUS45 KBOI 231610
RWRID 

IDAHO REGIONAL WEATHER ROUNDUP
NATIONAL WEATHER SERVICE BOISE ID
1000 AM MDT SUN JUN 23 2019

NOTE: "FAIR" INDICATES FEW OR NO CLOUDS BELOW 12000 FEET
WITH NO SIGNIFICANT WEATHER AND/OR OBSTRUCTIONS TO VISIBILITY

IDZ012-014-231700-
SOUTHWEST IDAHO

  
CITY           SKY/WX    TMP DP  RH WIND       PRES   REMARKS
BOISE          SUNNY     65  42  43 NW8       30.05R                  
CALDWELL       SUNNY     67  42  40 W9        30.05S                  
MOUNTAIN HOME  MOSUNNY   69  39  34 NW17      30.04S                  
$$

IDZ016-017-231700-
SOUTHCENTRAL IDAHO

  
CITY           SKY/WX    TMP DP  RH WIND       PRES   REMARKS
BURLEY         SUNNY     66  35  31 SW8       30.06F                  
JEROME         MOSUNNY   64  36  35 VRB3      30.07S                  
TWIN FALLS     SUNNY     72  33  24 W8        30.06F                  
$$

IDZ019>023-231700-
SOUTHEAST IDAHO

  
CITY           SKY/WX    TMP DP  RH WIND       PRES   REMARKS
IDAHO FALLS    MOSUNNY   58  35  42 SW12      30.10S                  
POCATELLO      SUNNY     66  31  27 SW10      30.09F                  
REXBURG        PTSUNNY   56  39  53 SW10      30.10S                  
$$

IDZ006-010-011-018-031-032-231700-
CENTRAL IDAHO MOUNTAINS

  
CITY           SKY/WX    TMP DP  RH WIND       PRES   REMARKS
MCCALL         MOSUNNY   58  37  45 N6        30.04F                  
HAILEY         MOSUNNY   63  45  51 E7        30.10F                  
STANLEY          N/A     56  40  55 VRB5      30.10F                  
SALMON         CLOUDY    58  41  53 N5        30.04F                  
CHALLIS        CLOUDY    60  39  45 CALM      30.03F                  
$$

IDZ002-004-006-007-026-231700-
NORTHERN IDAHO

  
CITY           SKY/WX    TMP DP  RH WIND       PRES   REMARKS
LEWISTON       MOSUNNY   67  44  43 VRB3      30.03R                  
LOWELL           N/A     58  51  78 CALM      30.03F                  
COEUR D'ALENE  MOSUNNY   59  45  59 S15G21    30.00F                  
MULLAN PASS    CLOUDY    43  37  79 CALM      30.05S                  
$$